FW6193 Weather Reports


time (UTC)temp
C
wind
direction
speed
KPH
gust
KPH
rain 1hr
cm
rain 24hr
cm
rain mn
cm
humidity
%
barometer
mb
20260505153032 25 0 0.0 0.0 0.00 0.00 0.00 47 1011.1
20260505152522 25 0 0.0 0.0 0.00 0.00 0.00 47 1011.2
20260505152018 25 0 0.0 0.0 0.00 0.00 0.00 50 1011.1
20260505151606 25 0 0.0 1.6 0.00 0.00 0.00 50 1011.1
20260505151044 25 0 0.0 4.8 0.00 0.00 0.00 53 1011.2
20260505150513 24 0 0.0 6.4 0.00 0.00 0.00 49 1011.2
20260505140519 23 0 0.0 0.0 0.00 0.00 0.00 58 1011.2
20260505140132 22 0 0.0 0.0 0.00 0.00 0.00 56 1011.2
20260505125016 18 0 0.0 0.0 0.00 0.00 0.00 63 1011.7
20260505124537 18 0 0.0 6.4 0.00 0.00 0.00 64 1011.6
20260505124016 18 0 0.0 6.4 0.00 0.00 0.00 64 1011.8
20260505123516 17 0 0.0 4.8 0.00 0.00 0.00 65 1011.6
20260505123047 17 0 0.0 4.8 0.00 0.00 0.00 65 1011.6
20260505122515 17 0 0.0 4.8 0.00 0.00 0.00 66 1011.6
20260505122013 17 0 0.0 4.8 0.00 0.00 0.00 68 1011.6
20260505121534 16 0 0.0 4.8 0.00 0.00 0.00 67 1011.6
20260505121011 16 0 0.0 6.4 0.00 0.00 0.00 68 1011.5
20260505120511 16 0 0.0 6.4 0.00 0.00 0.00 68 1011.5
20260505120045 16 81 0.0 4.8 0.00 0.00 0.00 68 1011.4
20260505115513 16 0 0.0 4.8 0.00 0.00 0.00 69 1011.3
20260505115011 16 0 0.0 0.0 0.00 0.00 0.00 71 1011.2
20260505114545 15 0 0.0 3.2 0.00 0.00 0.00 72 1011.3
20260505114012 15 0 0.0 4.8 0.00 0.00 0.00 72 1011.3
20260505113512 15 0 0.0 6.4 0.00 0.00 0.00 72 1011.2
20260505113030 15 0 0.0 6.4 0.00 0.00 0.00 73 1011.2
20260505112511 14 0 0.0 8.0 0.00 0.00 0.00 73 1011.3
20260505112010 14 0 0.0 8.0 0.00 0.00 0.00 74 1011.2
20260505111528 14 0 0.0 8.0 0.00 0.00 0.00 75 1011.2
20260505111009 13 0 0.0 8.0 0.00 0.00 0.00 75 1010.9
20260505110515 13 0 0.0 1.6 0.00 0.00 0.00 76 1010.8
20260505102011 13 0 0.0 3.2 0.00 0.00 0.00 77 1010.7
20260505101559 13 0 0.0 3.2 0.00 0.00 0.00 77 1010.8
20260505101017 13 0 0.0 1.6 0.00 0.00 0.00 77 1010.7
20260505100701 13 0 0.0 3.2 0.00 0.00 0.00 77 1010.6
20260505100036 13 0 0.0 3.2 0.00 0.00 0.00 77 1010.6
20260505095520 13 14 0.0 4.8 0.00 0.00 0.00 76 1010.5
20260505095053 13 0 0.0 6.4 0.00 0.00 0.00 76 1010.6
20260505094608 13 0 0.0 8.0 0.00 0.00 0.00 76 1010.4
20260505094013 13 0 0.0 8.0 0.00 0.00 0.00 76 1010.4
20260505093558 13 0 0.0 8.0 0.00 0.00 0.00 76 1010.3
20260505093211 13 0 0.0 8.0 0.00 0.00 0.00 76 1010.4
20260505092515 13 0 0.0 3.2 0.00 0.00 0.00 75 1010.4
20260505092013 13 0 0.0 3.2 0.00 0.00 0.00 75 1010.4
20260505091540 13 0 0.0 4.8 0.00 0.00 0.00 75 1010.4
20260505091159 13 0 0.0 6.4 0.00 0.00 0.00 75 1010.4
20260505091103 13 0 0.0 6.4 0.00 0.00 0.00 75 1010.4
20260505090608 13 0 0.0 6.4 0.00 0.00 0.00 75 1010.4
20260505090522 13 0 0.0 6.4 0.00 0.00 0.00 75 1010.4
20260505090044 13 0 0.0 3.2 0.00 0.00 0.00 75 1010.4
20260505085512 13 0 0.0 0.0 0.00 0.00 0.00 75 1010.4
20260505085111 13 0 0.0 4.8 0.00 0.00 0.00 75 1010.3
20260505084536 13 0 0.0 4.8 0.00 0.00 0.00 76 1010.2
20260505084124 13 0 0.0 4.8 0.00 0.00 0.00 76 1010.3
20260505083516 13 0 0.0 4.8 0.00 0.00 0.00 76 1010.2
20260505083032 13 0 0.0 4.8 0.00 0.00 0.00 76 1010.3
20260505082631 13 0 0.0 0.0 0.00 0.00 0.00 76 1010.3
20260505082013 13 0 0.0 0.0 0.00 0.00 0.00 76 1010.4
20260505081539 13 0 0.0 0.0 0.00 0.00 0.00 75 1010.4
20260505081023 13 0 0.0 0.0 0.00 0.00 0.00 75 1010.4
20260505080631 13 0 0.0 0.0 0.00 0.00 0.00 75 1010.4
20260505080330 13 0 0.0 0.0 0.00 0.00 0.00 75 1010.4
20260505075757 13 0 0.0 0.0 0.00 0.00 0.00 75 1010.3
20260505075009 13 0 0.0 0.0 0.00 0.00 0.00 75 1010.3
20260505074552 13 0 0.0 0.0 0.00 0.00 0.00 75 1010.3
20260505074429 13 0 0.0 0.0 0.00 0.00 0.00 74 1010.3
20260505073510 13 0 0.0 0.0 0.00 0.00 0.00 74 1010.2
20260505073044 13 0 0.0 1.6 0.00 0.00 0.00 74 1010.2
20260505072624 13 0 0.0 1.6 0.00 0.00 0.00 74 1010.3
20260505072321 13 0 0.0 4.8 0.00 0.00 0.00 74 1010.4
20260505071533 13 0 0.0 4.8 0.00 0.00 0.00 74 1010.3
20260505071355 13 0 0.0 3.2 0.00 0.00 0.00 74 1010.3
20260505070511 13 0 0.0 0.0 0.00 0.00 0.00 74 1010.2
20260505070028 13 0 0.0 0.0 0.00 0.00 0.00 74 1010.2
20260505065011 13 0 0.0 0.0 0.00 0.00 0.00 73 1010.4
20260505064533 13 0 0.0 0.0 0.00 0.00 0.00 73 1010.3
20260505064014 13 0 0.0 1.6 0.00 0.00 0.00 73 1010.4
20260505063911 13 0 0.0 1.6 0.00 0.00 0.00 73 1010.3
20260505062511 13 0 0.0 0.0 0.00 0.00 0.00 72 1010.3
20260505062319 13 0 0.0 0.0 0.00 0.00 0.00 71 1010.3
20260505061531 13 0 0.0 0.0 0.00 0.00 0.00 71 1010.5
20260505061017 13 0 0.0 0.0 0.00 0.00 0.00 70 1010.6
20260505060608 13 0 0.0 0.0 0.00 0.00 0.00 70 1010.4
20260505060224 13 0 0.0 0.0 0.00 0.00 0.00 69 1010.5
20260505060045 13 0 0.0 0.0 0.00 0.00 0.00 69 1010.5
20260505055525 13 0 0.0 3.2 0.00 0.00 0.00 69 1010.5
20260505055152 13 0 0.0 3.2 0.00 0.00 0.00 69 1010.4
20260505054528 14 0 0.0 3.2 0.00 0.00 0.00 68 1010.6
20260505054108 14 0 0.0 1.6 0.00 0.00 0.00 68 1010.4
20260505053715 14 0 0.0 0.0 0.00 0.00 0.00 68 1010.4
20260505053149 14 0 0.0 0.0 0.00 0.00 0.00 67 1010.7
20260505052520 14 0 0.0 4.8 0.00 0.00 0.00 67 1010.4
20260505052009 14 0 0.0 4.8 0.00 0.00 0.00 66 1010.5
20260505051533 14 0 0.0 4.8 0.00 0.00 0.00 66 1010.5
20260505051011 14 0 0.0 3.2 0.00 0.00 0.00 66 1010.5
20260505050516 14 0 0.0 4.8 0.00 0.00 0.00 66 1010.7
20260505041548 15 0 0.0 3.2 0.00 0.00 0.00 61 1010.4
20260505041011 15 0 0.0 4.8 0.00 0.00 0.00 60 1010.4
20260505040512 15 0 0.0 4.8 0.00 0.00 0.00 60 1010.3
20260505040030 15 14 0.0 4.8 0.00 0.00 0.00 59 1010.2
20260505035509 15 0 0.0 3.2 0.00 0.00 0.00 58 1010.2
20260505035035 16 0 0.0 8.0 0.00 0.00 0.00 58 1010.2
20260505034726 16 0 0.0 8.0 0.00 0.00 0.00 57 1010.3
20260505034230 16 0 0.0 8.0 0.00 0.00 0.00 57 1010.3
20260505034026 16 0 0.0 8.0 0.00 0.00 0.00 57 1010.3
20260505033510 16 0 0.0 8.0 0.00 0.00 0.00 57 1010.3
20260505033112 16 0 1.6 8.0 0.00 0.00 0.00 56 1010.4
20260505032516 16 0 1.6 8.0 0.00 0.00 0.00 56 1010.4
20260505032010 16 13 1.6 8.0 0.00 0.00 0.00 56 1010.3
20260505031536 16 360 1.6 8.0 0.00 0.00 0.00 55 1010.3
20260505031013 16 0 0.0 8.0 0.00 0.00 0.00 55 1010.5
20260505030509 16 0 1.6 8.0 0.00 0.00 0.00 55 1010.6
20260505030036 16 0 0.0 6.4 0.00 0.00 0.00 55 1010.3
20260505025651 16 0 0.0 6.4 0.00 0.00 0.00 54 1010.4
20260505025342 16 0 0.0 6.4 0.00 0.00 0.00 54 1010.4
20260505024619 16 0 1.6 6.4 0.00 0.00 0.00 54 1010.2
20260505023511 16 0 0.0 4.8 0.00 0.00 0.00 53 1010.4
20260505023039 16 0 0.0 4.8 0.00 0.00 0.00 53 1010.4
20260505022515 16 0 0.0 3.2 0.00 0.00 0.00 54 1010.5
20260505022030 16 0 0.0 3.2 0.00 0.00 0.00 54 1010.6
20260505021529 16 20 0.0 0.0 0.00 0.00 0.00 53 1010.4
20260505021010 16 0 0.0 4.8 0.00 0.00 0.00 53 1010.6
20260505020535 16 0 0.0 4.8 0.00 0.00 0.00 53 1010.5
20260505020029 16 13 0.0 4.8 0.00 0.00 0.00 53 1010.4
20260505015517 16 0 0.0 4.8 0.00 0.00 0.00 52 1010.6
20260505015009 16 0 0.0 4.8 0.00 0.00 0.00 52 1010.5
20260505014534 16 0 0.0 1.6 0.00 0.00 0.00 53 1010.5
20260505014009 16 0 0.0 6.4 0.00 0.00 0.00 53 1010.5
20260505013657 16 0 0.0 8.0 0.00 0.00 0.00 53 1010.5
20260505013031 16 13 0.0 8.0 0.00 0.00 0.00 52 1010.5
20260505012515 16 10 0.0 8.0 0.00 0.00 0.00 53 1010.4
20260505012011 16 0 0.0 6.4 0.00 0.00 0.00 53 1010.4
20260505011531 16 9 0.0 6.4 0.00 0.00 0.00 53 1010.4
20260505011051 16 0 0.0 3.2 0.00 0.00 0.00 54 1010.4
20260505010609 16 0 0.0 1.6 0.00 0.00 0.00 53 1010.4
20260505010031 16 0 0.0 1.6 0.00 0.00 0.00 53 1010.2
20260505005556 16 0 0.0 1.6 0.00 0.00 0.00 52 1010.3
20260505005012 16 0 0.0 0.0 0.00 0.00 0.00 53 1010.1
20260505004539 17 0 0.0 0.0 0.00 0.00 0.00 52 1010.2
20260505004013 17 0 0.0 0.0 0.00 0.00 0.00 52 1009.9
20260505003519 17 0 0.0 0.0 0.00 0.00 0.00 51 1009.9
20260505003039 17 0 0.0 0.0 0.00 0.00 0.00 50 1009.9
20260505002516 17 0 0.0 0.0 0.00 0.00 0.00 49 1009.7
20260505002116 17 0 0.0 3.2 0.00 0.00 0.00 49 1009.8
20260505001621 18 0 0.0 3.2 0.00 0.00 0.00 49 1009.8
20260505000552 18 0 0.0 3.2 0.00 0.00 0.00 47 1009.6
20260505000442 18 0 0.0 3.2 0.00 0.00 0.00 48 1009.6
20260504235839 18 0 0.0 4.8 0.00 0.00 0.00 47 1009.7
20260504235709 18 0 0.0 4.8 0.00 0.00 0.00 47 1009.7
20260504235520 18 0 0.0 6.4 0.00 0.00 0.00 47 1009.6
20260504233917 18 0 0.0 1.6 0.00 0.00 0.00 46 1009.5
20260504232559 19 0 0.0 8.0 0.00 0.00 0.00 45 1009.7
20260504231856 19 0 0.0 8.0 0.00 0.00 0.00 45 1009.6
20260504231429 19 0 0.0 6.4 0.00 0.00 0.00 44 1009.6
20260504230512 19 0 0.0 6.4 0.00 0.00 0.00 44 1009.8
20260504230028 19 0 0.0 6.4 0.00 0.00 0.00 44 1009.5
20260504225722 20 0 0.0 12.9 0.00 0.00 0.00 44 1009.5
20260504225458 20 0 0.0 12.9 0.00 0.00 0.00 44 1009.6
20260504224806 20 0 0.0 6.4 0.00 0.00 0.00 44 1009.5
20260504224016 20 0 0.0 4.8 0.00 0.00 0.00 44 1009.5
20260504223803 20 0 0.0 6.4 0.00 0.00 0.00 43 1009.5
20260504222758 20 0 1.6 12.9 0.00 0.00 0.00 44 1009.6
20260504214110 20 0 0.0 9.7 0.00 0.00 0.00 44 1009.8
20260504213510 20 0 0.0 8.0 0.00 0.00 0.00 41 1009.7
20260504213130 20 0 0.0 8.0 0.00 0.00 0.00 42 1009.8
20260504212516 20 0 0.0 6.4 0.00 0.00 0.00 43 1009.9
20260504212150 20 0 0.0 8.0 0.00 0.00 0.00 42 1009.7
20260504211529 20 0 0.0 8.0 0.00 0.00 0.00 42 1009.7
20260504211012 20 360 0.0 12.9 0.00 0.00 0.00 41 1009.8
20260504210616 20 0 0.0 12.9 0.00 0.00 0.00 43 1010.0
20260504210457 20 0 0.0 8.0 0.00 0.00 0.00 40 1009.9
20260504205533 20 0 0.0 8.0 0.00 0.00 0.00 42 1009.8
20260504205010 20 0 0.0 8.0 0.00 0.00 0.00 42 1009.9
20260504204533 20 0 0.0 8.0 0.00 0.00 0.00 42 1009.8
20260504204011 20 0 0.0 12.9 0.00 0.00 0.00 41 1009.9
20260504203544 21 0 0.0 12.9 0.00 0.00 0.00 40 1009.9
20260504203035 21 0 0.0 6.4 0.00 0.00 0.00 41 1010.0
20260504202515 21 0 0.0 6.4 0.00 0.00 0.00 43 1009.8
20260504202013 21 0 0.0 12.9 0.00 0.00 0.00 39 1010.1
20260504201942 21 0 1.6 12.9 0.00 0.00 0.00 38 1010.1
20260504201406 21 0 0.0 9.7 0.00 0.00 0.00 40 1010.2
20260504200513 21 0 0.0 6.4 0.00 0.00 0.00 38 1010.2
20260504200129 22 0 0.0 6.4 0.00 0.00 0.00 39 1010.3
20260504195555 21 0 0.0 6.4 0.00 0.00 0.00 40 1010.3
20260504195123 21 0 0.0 6.4 0.00 0.00 0.00 42 1010.4
20260504194604 22 0 0.0 8.0 0.00 0.00 0.00 38 1010.4
20260504194116 22 0 0.0 12.9 0.00 0.00 0.00 39 1010.4
20260504193512 22 0 0.0 12.9 0.00 0.00 0.00 41 1010.4
20260504193111 22 0 0.0 4.8 0.00 0.00 0.00 40 1010.5
20260504192848 21 0 0.0 8.0 0.00 0.00 0.00 41 1010.6
20260504192101 21 0 0.0 8.0 0.00 0.00 0.00 39 1010.7
20260504191528 22 0 0.0 1.6 0.00 0.00 0.00 39 1010.6
20260504191027 22 0 0.0 3.2 0.00 0.00 0.00 40 1010.7
20260504190607 22 0 0.0 9.7 0.00 0.00 0.00 47 1010.8
20260504190032 21 0 0.0 9.7 0.00 0.00 0.00 40 1010.8
20260504185601 21 0 0.0 9.7 0.00 0.00 0.00 41 1010.9
20260504185017 21 70 0.0 8.0 0.00 0.00 0.00 43 1010.9
20260504184541 21 0 0.0 8.0 0.00 0.00 0.00 37 1011.0
20260504184047 21 0 0.0 14.5 0.00 0.00 0.00 39 1011.2
20260504183517 21 323 0.0 14.5 0.00 0.00 0.00 40 1011.3
20260504183033 21 27 0.0 6.4 0.00 0.00 0.00 39 1011.4
20260504182511 21 0 0.0 6.4 0.00 0.00 0.00 44 1011.5
20260504182012 21 0 0.0 6.4 0.00 0.00 0.00 38 1011.4
20260504181536 21 0 0.0 6.4 0.00 0.00 0.00 39 1011.4
20260504181054 21 0 0.0 3.2 0.00 0.00 0.00 40 1011.4
20260504180510 21 0 0.0 9.7 0.00 0.00 0.00 47 1011.6
20260504180031 21 0 0.0 9.7 0.00 0.00 0.00 40 1011.6
20260504175512 21 0 0.0 9.7 0.00 0.00 0.00 43 1011.7
20260504175013 20 0 0.0 6.4 0.00 0.00 0.00 44 1012.0
20260504174530 21 0 0.0 8.0 0.00 0.00 0.00 40 1011.8
20260504174014 21 0 0.0 8.0 0.00 0.00 0.00 40 1011.8
20260504173517 21 68 0.0 8.0 0.00 0.00 0.00 39 1011.9
20260504173036 21 0 0.0 8.0 0.00 0.00 0.00 41 1012.0
20260504172509 21 0 0.0 6.4 0.00 0.00 0.00 43 1012.0
20260504172012 20 0 0.0 6.4 0.00 0.00 0.00 43 1012.2
20260504171533 20 0 0.0 6.4 0.00 0.00 0.00 43 1012.1
20260504171015 20 0 0.0 8.0 0.00 0.00 0.00 40 1012.1
20260504170513 20 0 0.0 8.0 0.00 0.00 0.00 43 1012.3